Back to catalog

STARLINK-11169

AliveCommunicationsVLEO
NORAD 60064·PAYLOAD·🇺🇸 United States

Launched Jun 19, 2024 from Vandenberg Space Force Base

Loading…

Next Passes (next 24 hours)

TLE

FreshSource: CelesTrak SupGP

Epoch: Sep 14, 2026, 13:48 UTC

1 60064C 24113F   26257.57548611  .00055462  00000+0  45756-3 0  2574
2 60064  53.1569 339.9217 0001202  52.6404 174.7469 15.69644419    15

Track STARLINK-11169 in real time with AllMySat

Download on the App Store